Time,TemperatureF,DewpointF,PressureIn,WindDirection,WindDirectionDegrees,WindSpeedMPH,WindSpeedGustMPH,Humidity,HourlyPrecipIn,Conditions,Clouds,dailyrainin,SoftwareType,DateUTC
2013-07-24 00:00:00,70.8,17.5,29.93,SE,146,2.0,2.0,13,0.00,,,0.00,Wunderground v.1.15,2013-07-24 07:00:00,
2013-07-24 00:05:00,71.1,17.7,29.93,SSE,159,2.0,2.0,13,0.00,,,0.00,Wunderground v.1.15,2013-07-24 07:05:00,
2013-07-24 00:10:00,71.3,17.9,29.93,SE,126,3.0,3.0,13,0.00,,,0.00,Wunderground v.1.15,2013-07-24 07:10:00,
2013-07-24 00:15:00,71.1,17.7,29.93,SE,140,2.0,3.0,13,0.00,,,0.00,Wunderground v.1.15,2013-07-24 07:15:00,
2013-07-24 00:20:00,71.1,15.9,29.93,ESE,121,2.0,2.0,12,0.00,,,0.00,Wunderground v.1.15,2013-07-24 07:20:00,
2013-07-24 00:25:00,71.3,16.0,29.93,ENE,76,2.0,2.0,12,0.00,,,0.00,Wunderground v.1.15,2013-07-24 07:25:00,
2013-07-24 00:30:00,71.5,12.0,29.93,ENE,76,1.0,1.0,10,0.00,,,0.00,Wunderground v.1.15,2013-07-24 07:30:00,
2013-07-24 00:35:00,71.7,9.8,29.93,ESE,109,1.0,2.0,9,0.00,,,0.00,Wunderground v.1.15,2013-07-24 07:35:00,
2013-07-24 00:40:00,71.7,9.8,29.92,ESE,109,1.0,3.0,9,0.00,,,0.00,Wunderground v.1.15,2013-07-24 07:40:00,
2013-07-24 00:45:00,71.7,9.8,29.92,ESE,109,0.0,3.0,9,0.00,,,0.00,Wunderground v.1.15,2013-07-24 07:45:00,
2013-07-24 00:50:00,72.1,7.5,29.92,ESE,109,0.0,3.0,8,0.00,,,0.00,Wunderground v.1.15,2013-07-24 07:50:00,
2013-07-24 00:55:00,72.2,7.5,29.92,ESE,109,0.0,3.0,8,0.00,,,0.00,Wunderground v.1.15,2013-07-24 07:55:00,
2013-07-24 01:00:00,72.3,7.6,29.92,NE,52,1.0,3.0,8,0.00,,,0.00,Wunderground v.1.15,2013-07-24 08:00:00,
2013-07-24 01:10:00,73.3,8.4,29.92,ENE,76,2.0,2.0,8,0.00,,,0.00,Wunderground v.1.15,2013-07-24 08:10:00,
2013-07-24 01:15:00,73.8,8.7,29.92,ENE,76,1.0,2.0,8,0.00,,,0.00,Wunderground v.1.15,2013-07-24 08:15:00,
2013-07-24 01:20:00,73.9,8.8,29.92,ENE,76,1.0,1.0,8,0.00,,,0.00,Wunderground v.1.15,2013-07-24 08:20:00,
2013-07-24 01:25:00,73.8,8.7,29.92,NNW,328,1.0,2.0,8,0.00,,,0.00,Wunderground v.1.15,2013-07-24 08:25:00,
2013-07-24 01:30:00,73.4,11.1,29.92,NNW,328,1.0,2.0,9,0.00,,,0.00,Wunderground v.1.15,2013-07-24 08:30:00,
2013-07-24 01:35:00,73.3,8.4,29.92,NNW,328,2.0,2.0,8,0.00,,,0.00,Wunderground v.1.15,2013-07-24 08:35:00,
2013-07-24 01:40:00,73.2,10.9,29.92,NNW,328,1.0,2.0,9,0.00,,,0.00,Wunderground v.1.15,2013-07-24 08:40:00,
2013-07-24 01:45:00,73.2,10.9,29.92,NNW,328,1.0,2.0,9,0.00,,,0.00,Wunderground v.1.15,2013-07-24 08:45:00,
2013-07-24 01:50:00,72.9,10.7,29.92,NNW,328,0.0,2.0,9,0.00,,,0.00,Wunderground v.1.15,2013-07-24 08:50:00,
2013-07-24 01:55:00,72.4,12.7,29.92,NNW,328,0.0,2.0,10,0.00,,,0.00,Wunderground v.1.15,2013-07-24 08:55:00,
2013-07-24 02:00:00,72.2,12.5,29.92,NNW,328,0.0,0.0,10,0.00,,,0.00,Wunderground v.1.15,2013-07-24 09:00:00,
2013-07-24 02:05:00,72.2,18.6,29.92,NNW,328,0.0,0.0,13,0.00,,,0.00,Wunderground v.1.15,2013-07-24 09:05:00,
2013-07-24 02:10:00,72.0,14.6,29.91,NNW,328,0.0,0.0,11,0.00,,,0.00,Wunderground v.1.15,2013-07-24 09:10:00,
2013-07-24 02:15:00,71.9,14.5,29.91,NNW,328,0.0,0.0,11,0.00,,,0.00,Wunderground v.1.15,2013-07-24 09:15:00,
2013-07-24 02:20:00,72.0,16.6,29.91,NNW,328,0.0,0.0,12,0.00,,,0.00,Wunderground v.1.15,2013-07-24 09:20:00,
2013-07-24 02:25:00,72.1,16.6,29.91,ESE,117,0.0,2.0,12,0.00,,,0.00,Wunderground v.1.15,2013-07-24 09:25:00,
2013-07-24 02:30:00,72.1,18.5,29.91,SE,130,1.0,2.0,13,0.00,,,0.00,Wunderground v.1.15,2013-07-24 09:30:00,
2013-07-24 02:35:00,72.0,18.4,29.91,ESE,108,1.0,3.0,13,0.00,,,0.00,Wunderground v.1.15,2013-07-24 09:35:00,
2013-07-24 02:40:00,72.1,14.6,29.91,ENE,68,1.0,3.0,11,0.00,,,0.00,Wunderground v.1.15,2013-07-24 09:40:00,
2013-07-24 02:45:00,72.4,12.7,29.91,ENE,71,1.0,3.0,10,0.00,,,0.00,Wunderground v.1.15,2013-07-24 09:45:00,
2013-07-24 02:50:00,72.7,15.1,29.91,ENE,71,1.0,1.0,11,0.00,,,0.00,Wunderground v.1.15,2013-07-24 09:50:00,
2013-07-24 02:55:00,72.9,15.3,29.91,ENE,71,0.0,3.0,11,0.00,,,0.00,Wunderground v.1.15,2013-07-24 09:55:00,
2013-07-24 03:00:00,73.1,15.4,29.91,ENE,71,0.0,0.0,11,0.00,,,0.00,Wunderground v.1.15,2013-07-24 10:00:00,
2013-07-24 03:05:00,73.2,15.5,29.91,ENE,71,0.0,0.0,11,0.00,,,0.00,Wunderground v.1.15,2013-07-24 10:05:00,
2013-07-24 03:10:00,73.2,17.5,29.91,ENE,71,0.0,0.0,12,0.00,,,0.00,Wunderground v.1.15,2013-07-24 10:10:00,
2013-07-24 03:15:00,73.1,15.4,29.91,ENE,71,0.0,0.0,11,0.00,,,0.00,Wunderground v.1.15,2013-07-24 10:15:00,
2013-07-24 03:19:00,73.2,13.3,29.91,ENE,71,0.0,0.0,10,0.00,,,0.00,Wunderground v.1.15,2013-07-24 10:19:00,
2013-07-24 03:25:00,73.4,13.5,29.91,ENE,71,0.0,0.0,10,0.00,,,0.00,Wunderground v.1.15,2013-07-24 10:25:00,
2013-07-24 03:30:00,73.6,13.6,29.91,ENE,71,0.0,0.0,10,0.00,,,0.00,Wunderground v.1.15,2013-07-24 10:30:00,
2013-07-24 03:35:00,73.7,13.7,29.91,ENE,71,0.0,3.0,10,0.00,,,0.00,Wunderground v.1.15,2013-07-24 10:35:00,
2013-07-24 03:40:00,73.6,13.6,29.91,ENE,71,0.0,3.0,10,0.00,,,0.00,Wunderground v.1.15,2013-07-24 10:40:00,
2013-07-24 03:45:00,73.5,15.7,29.91,ENE,71,0.0,3.0,11,0.00,,,0.00,Wunderground v.1.15,2013-07-24 10:45:00,
2013-07-24 03:50:00,73.4,15.6,29.91,SE,132,0.0,3.0,11,0.00,,,0.00,Wunderground v.1.15,2013-07-24 10:50:00,
2013-07-24 03:55:00,73.2,13.3,29.90,East,99,0.0,3.0,10,0.00,,,0.00,Wunderground v.1.15,2013-07-24 10:55:00,
2013-07-24 04:00:00,73.2,15.5,29.90,East,99,0.0,0.0,11,0.00,,,0.00,Wunderground v.1.15,2013-07-24 11:00:00,
2013-07-24 04:05:00,73.1,17.4,29.91,East,99,0.0,0.0,12,0.00,,,0.00,Wunderground v.1.15,2013-07-24 11:05:00,
2013-07-24 04:10:00,73.0,15.3,29.90,East,99,0.0,0.0,11,0.00,,,0.00,Wunderground v.1.15,2013-07-24 11:10:00,
2013-07-24 04:15:00,73.3,15.6,29.90,East,99,0.0,0.0,11,0.00,,,0.00,Wunderground v.1.15,2013-07-24 11:15:00,
2013-07-24 04:20:00,73.5,13.5,29.90,East,99,0.0,0.0,10,0.00,,,0.00,Wunderground v.1.15,2013-07-24 11:20:00,
2013-07-24 04:25:00,73.7,13.7,29.90,East,99,0.0,0.0,10,0.00,,,0.00,Wunderground v.1.15,2013-07-24 11:25:00,
2013-07-24 04:30:00,73.9,16.0,29.90,East,99,0.0,0.0,11,0.00,,,0.00,Wunderground v.1.15,2013-07-24 11:30:00,
2013-07-24 04:35:00,74.0,16.1,29.90,East,99,0.0,0.0,11,0.00,,,0.00,Wunderground v.1.15,2013-07-24 11:35:00,
2013-07-24 04:40:00,73.9,16.0,29.91,East,85,0.0,0.0,11,0.00,,,0.00,Wunderground v.1.15,2013-07-24 11:40:00,
2013-07-24 04:45:00,73.9,16.0,29.90,East,86,0.0,0.0,11,0.00,,,0.00,Wunderground v.1.15,2013-07-24 11:45:00,
2013-07-24 04:50:00,73.9,18.0,29.91,East,86,0.0,0.0,12,0.00,,,0.00,Wunderground v.1.15,2013-07-24 11:50:00,
2013-07-24 04:55:00,74.0,20.0,29.91,East,93,0.0,0.0,13,0.00,,,0.00,Wunderground v.1.15,2013-07-24 11:55:00,
2013-07-24 05:00:00,74.0,20.0,29.91,East,96,0.0,0.0,13,0.00,,,0.00,Wunderground v.1.15,2013-07-24 12:00:00,
2013-07-24 05:05:00,73.9,23.3,29.91,East,101,0.0,0.0,15,0.00,,,0.00,Wunderground v.1.15,2013-07-24 12:05:00,
2013-07-24 05:10:00,73.8,23.2,29.91,East,101,0.0,0.0,15,0.00,,,0.00,Wunderground v.1.15,2013-07-24 12:10:00,
2013-07-24 05:15:00,73.7,19.8,29.91,SE,135,0.0,0.0,13,0.00,,,0.00,Wunderground v.1.15,2013-07-24 12:15:00,
2013-07-24 05:20:00,73.7,23.1,29.91,SSE,153,0.0,0.0,15,0.00,,,0.00,Wunderground v.1.15,2013-07-24 12:20:00,
2013-07-24 05:25:00,73.5,23.0,29.91,SSE,151,1.0,3.0,15,0.00,,,0.00,Wunderground v.1.15,2013-07-24 12:25:00,
2013-07-24 05:30:00,73.0,25.6,29.91,SE,142,3.0,4.0,17,0.00,,,0.00,Wunderground v.1.15,2013-07-24 12:30:00,
2013-07-24 05:35:00,72.7,25.3,29.91,SE,129,4.0,4.0,17,0.00,,,0.00,Wunderground v.1.15,2013-07-24 12:35:00,
2013-07-24 05:40:00,72.4,27.8,29.92,SE,126,4.0,4.0,19,0.00,,,0.00,Wunderground v.1.15,2013-07-24 12:40:00,
2013-07-24 05:45:00,72.2,26.3,29.92,East,91,4.0,4.0,18,0.00,,,0.00,Wunderground v.1.15,2013-07-24 12:45:00,
2013-07-24 05:50:00,71.9,23.2,29.92,ESE,102,3.0,3.0,16,0.00,,,0.00,Wunderground v.1.15,2013-07-24 12:50:00,
2013-07-24 05:55:00,72.1,21.9,29.92,East,99,2.0,3.0,15,0.00,,,0.00,Wunderground v.1.15,2013-07-24 12:55:00,
2013-07-24 06:00:00,72.8,20.8,29.92,SE,126,2.0,2.0,14,0.00,,,0.00,Wunderground v.1.15,2013-07-24 13:00:00,
2013-07-24 06:05:00,73.1,21.0,29.92,NE,55,2.0,2.0,14,0.00,,,0.00,Wunderground v.1.15,2013-07-24 13:05:00,
2013-07-24 06:15:00,73.9,21.7,29.92,NE,56,1.0,1.0,14,0.00,,,0.00,Wunderground v.1.15,2013-07-24 13:15:00,
2013-07-24 06:20:00,74.1,23.5,29.92,NE,50,1.0,1.0,15,0.00,,,0.00,Wunderground v.1.15,2013-07-24 13:20:00,
2013-07-24 06:25:00,74.3,23.6,29.92,NE,50,1.0,1.0,15,0.00,,,0.00,Wunderground v.1.15,2013-07-24 13:25:00,
2013-07-24 06:30:00,74.1,23.5,29.92,SE,125,0.0,1.0,15,0.00,,,0.00,Wunderground v.1.15,2013-07-24 13:30:00,
2013-07-24 06:35:00,73.8,23.2,29.92,East,88,1.0,6.0,15,0.00,,,0.00,Wunderground v.1.15,2013-07-24 13:35:00,
2013-07-24 06:40:00,73.6,21.4,29.92,East,88,1.0,6.0,14,0.00,,,0.00,Wunderground v.1.15,2013-07-24 13:40:00,
2013-07-24 06:50:00,73.7,21.5,29.92,East,88,0.0,6.0,14,0.00,,,0.00,Wunderground v.1.15,2013-07-24 13:50:00,
2013-07-24 06:55:00,74.2,21.9,29.92,East,88,0.0,6.0,14,0.00,,,0.00,Wunderground v.1.15,2013-07-24 13:55:00,
2013-07-24 07:00:00,74.8,22.4,29.92,ENE,74,1.0,2.0,14,0.00,,,0.00,Wunderground v.1.15,2013-07-24 14:00:00,
2013-07-24 07:05:00,75.0,22.5,29.92,ENE,74,1.0,2.0,14,0.00,,,0.00,Wunderground v.1.15,2013-07-24 14:05:00,
2013-07-24 07:10:00,75.5,21.2,29.92,SSW,194,1.0,1.0,13,0.00,,,0.00,Wunderground v.1.15,2013-07-24 14:10:00,
2013-07-24 07:15:00,75.9,21.5,29.92,SSW,194,0.0,1.0,13,0.00,,,0.00,Wunderground v.1.15,2013-07-24 14:15:00,
2013-07-24 07:20:00,75.9,23.2,29.92,WNW,282,1.0,1.0,14,0.00,,,0.00,Wunderground v.1.15,2013-07-24 14:20:00,
2013-07-24 07:25:00,76.2,23.5,29.93,WNW,282,0.0,1.0,14,0.00,,,0.00,Wunderground v.1.15,2013-07-24 14:25:00,
2013-07-24 07:30:00,76.1,26.6,29.93,WNW,282,0.0,1.0,16,0.00,,,0.00,Wunderground v.1.15,2013-07-24 14:30:00,
2013-07-24 07:35:00,75.7,27.8,29.93,WNW,282,1.0,2.0,17,0.00,,,0.00,Wunderground v.1.15,2013-07-24 14:35:00,
2013-07-24 07:40:00,76.1,28.1,29.92,WNW,282,1.0,1.0,17,0.00,,,0.00,Wunderground v.1.15,2013-07-24 14:40:00,
2013-07-24 07:44:00,76.5,26.9,29.92,West,274,0.0,2.0,16,0.00,,,0.00,Wunderground v.1.15,2013-07-24 14:44:00,
2013-07-24 07:50:00,76.9,30.1,29.93,South,172,1.0,2.0,18,0.00,,,0.00,Wunderground v.1.15,2013-07-24 14:50:00,
2013-07-24 07:55:00,77.2,27.5,29.93,South,172,1.0,2.0,16,0.00,,,0.00,Wunderground v.1.15,2013-07-24 14:55:00,
2013-07-24 08:00:00,78.1,29.7,29.92,South,172,0.0,0.0,17,0.00,,,0.00,Wunderground v.1.15,2013-07-24 15:00:00,
2013-07-24 08:05:00,78.7,23.7,29.92,WSW,239,0.0,1.0,13,0.00,,,0.00,Wunderground v.1.15,2013-07-24 15:05:00,
2013-07-24 08:10:00,79.4,24.2,29.92,West,271,1.0,1.0,13,0.00,,,0.00,Wunderground v.1.15,2013-07-24 15:10:00,
2013-07-24 08:15:00,79.6,24.4,29.93,West,271,1.0,1.0,13,0.00,,,0.00,Wunderground v.1.15,2013-07-24 15:15:00,
2013-07-24 08:25:00,79.9,22.7,29.93,NW,316,1.0,3.0,12,0.00,,,0.00,Wunderground v.1.15,2013-07-24 15:25:00,
2013-07-24 08:30:00,79.9,22.7,29.93,WNW,287,1.0,1.0,12,0.00,,,0.00,Wunderground v.1.15,2013-07-24 15:30:00,
2013-07-24 08:35:00,80.2,23.0,29.93,WNW,289,1.0,2.0,12,0.00,,,0.00,Wunderground v.1.15,2013-07-24 15:35:00,
2013-07-24 08:40:00,80.3,24.9,29.93,WNW,282,1.0,2.0,13,0.00,,,0.00,Wunderground v.1.15,2013-07-24 15:40:00,
2013-07-24 08:45:00,80.2,23.0,29.93,West,275,2.0,2.0,12,0.00,,,0.00,Wunderground v.1.15,2013-07-24 15:45:00,
2013-07-24 08:50:00,80.3,23.0,29.93,West,279,1.0,2.0,12,0.00,,,0.00,Wunderground v.1.15,2013-07-24 15:50:00,
2013-07-24 08:55:00,80.5,23.2,29.93,WNW,288,1.0,2.0,12,0.00,,,0.00,Wunderground v.1.15,2013-07-24 15:55:00,
2013-07-24 09:00:00,80.6,23.3,29.93,West,273,1.0,2.0,12,0.00,,,0.00,Wunderground v.1.15,2013-07-24 16:00:00,
2013-07-24 09:10:00,81.2,27.4,29.93,West,281,2.0,2.0,14,0.00,,,0.00,Wunderground v.1.15,2013-07-24 16:10:00,
2013-07-24 09:15:00,81.3,30.8,29.93,West,280,2.0,2.0,16,0.00,,,0.00,Wunderground v.1.15,2013-07-24 16:15:00,
2013-07-24 09:20:00,81.2,30.7,29.94,NW,317,2.0,2.0,16,0.00,,,0.00,Wunderground v.1.15,2013-07-24 16:20:00,
2013-07-24 09:25:00,80.5,28.6,29.93,WNW,286,2.0,2.0,15,0.00,,,0.00,Wunderground v.1.15,2013-07-24 16:25:00,
2013-07-24 09:30:00,80.7,27.0,29.94,WNW,286,2.0,2.0,14,0.00,,,0.00,Wunderground v.1.15,2013-07-24 16:30:00,
2013-07-24 09:35:00,81.5,27.7,29.94,West,275,2.0,3.0,14,0.00,,,0.00,Wunderground v.1.15,2013-07-24 16:35:00,
2013-07-24 09:40:00,81.7,24.1,29.94,West,275,2.0,3.0,12,0.00,,,0.00,Wunderground v.1.15,2013-07-24 16:40:00,
2013-07-24 09:45:00,81.8,26.1,29.94,NW,309,2.0,3.0,13,0.00,,,0.00,Wunderground v.1.15,2013-07-24 16:45:00,
2013-07-24 09:50:00,81.8,29.6,29.93,WNW,302,2.0,3.0,15,0.00,,,0.00,Wunderground v.1.15,2013-07-24 16:50:00,
2013-07-24 09:55:00,81.8,31.2,29.94,West,262,2.0,3.0,16,0.00,,,0.00,Wunderground v.1.15,2013-07-24 16:55:00,
2013-07-24 10:00:00,82.9,30.5,29.94,East,81,2.0,2.0,15,0.00,,,0.00,Wunderground v.1.15,2013-07-24 17:00:00,
2013-07-24 10:05:00,83.3,27.3,29.94,NW,313,2.0,3.0,13,0.00,,,0.00,Wunderground v.1.15,2013-07-24 17:05:00,
2013-07-24 10:10:00,83.4,27.4,29.94,SW,225,2.0,3.0,13,0.00,,,0.00,Wunderground v.1.15,2013-07-24 17:10:00,
2013-07-24 10:15:00,82.8,28.7,29.94,West,265,2.0,3.0,14,0.00,,,0.00,Wunderground v.1.15,2013-07-24 17:15:00,
2013-07-24 10:20:00,82.3,30.0,29.94,West,274,2.0,2.0,15,0.00,,,0.00,Wunderground v.1.15,2013-07-24 17:20:00,
2013-07-24 10:25:00,82.9,32.1,29.94,WSW,256,2.0,2.0,16,0.00,,,0.00,Wunderground v.1.15,2013-07-24 17:25:00,
2013-07-24 10:30:00,83.2,35.3,29.94,West,267,1.0,3.0,18,0.00,,,0.00,Wunderground v.1.15,2013-07-24 17:30:00,
2013-07-24 10:35:00,82.8,36.3,29.94,NW,309,2.0,4.0,19,0.00,,,0.00,Wunderground v.1.15,2013-07-24 17:35:00,
2013-07-24 10:40:00,83.2,35.3,29.94,SW,225,2.0,4.0,18,0.00,,,0.00,Wunderground v.1.15,2013-07-24 17:40:00,
2013-07-24 10:45:00,83.8,34.3,29.94,West,263,2.0,4.0,17,0.00,,,0.00,Wunderground v.1.15,2013-07-24 17:45:00,
2013-07-24 10:50:00,84.7,31.9,29.94,West,277,2.0,4.0,15,0.00,,,0.00,Wunderground v.1.15,2013-07-24 17:50:00,
2013-07-24 10:55:00,84.9,30.4,29.94,West,269,2.0,4.0,14,0.00,,,0.00,Wunderground v.1.15,2013-07-24 17:55:00,
2013-07-24 11:00:00,85.0,32.2,29.94,WNW,285,2.0,2.0,15,0.00,,,0.00,Wunderground v.1.15,2013-07-24 18:00:00,
2013-07-24 11:10:00,85.3,32.4,29.94,WNW,288,3.0,4.0,15,0.00,,,0.00,Wunderground v.1.15,2013-07-24 18:10:00,
2013-07-24 11:15:00,85.1,30.5,29.94,West,265,3.0,4.0,14,0.00,,,0.00,Wunderground v.1.15,2013-07-24 18:15:00,
2013-07-24 11:20:00,85.2,30.6,29.94,West,265,2.0,2.0,14,0.00,,,0.00,Wunderground v.1.15,2013-07-24 18:20:00,
2013-07-24 11:25:00,85.5,30.8,29.94,North,355,2.0,3.0,14,0.00,,,0.00,Wunderground v.1.15,2013-07-24 18:25:00,
2013-07-24 11:30:00,85.2,36.9,29.94,WNW,298,3.0,3.0,18,0.00,,,0.00,Wunderground v.1.15,2013-07-24 18:30:00,
2013-07-24 11:35:00,83.4,35.4,29.94,NW,311,4.0,6.0,18,0.00,,,0.00,Wunderground v.1.15,2013-07-24 18:35:00,
2013-07-24 11:40:00,82.1,37.0,29.94,NNW,327,5.0,5.0,20,0.00,,,0.00,Wunderground v.1.15,2013-07-24 18:40:00,
2013-07-24 11:45:00,82.1,37.0,29.93,NW,310,5.0,6.0,20,0.00,,,0.00,Wunderground v.1.15,2013-07-24 18:45:00,
2013-07-24 11:55:00,83.7,37.0,29.93,NW,317,5.0,5.0,19,0.00,,,0.00,Wunderground v.1.15,2013-07-24 18:55:00,
2013-07-24 12:00:00,84.2,36.1,29.93,North,5,5.0,5.0,18,0.00,,,0.00,Wunderground v.1.15,2013-07-24 19:00:00,
2013-07-24 12:05:00,84.7,36.5,29.93,NW,306,4.0,5.0,18,0.00,,,0.00,Wunderground v.1.15,2013-07-24 19:05:00,
2013-07-24 12:10:00,84.7,37.9,29.93,WNW,296,3.0,5.0,19,0.00,,,0.00,Wunderground v.1.15,2013-07-24 19:10:00,
2013-07-24 12:15:00,86.7,39.5,29.93,WNW,288,3.0,5.0,19,0.00,,,0.00,Wunderground v.1.15,2013-07-24 19:15:00,
2013-07-24 12:20:00,87.0,41.1,29.93,WNW,288,3.0,3.0,20,0.00,,,0.00,Wunderground v.1.15,2013-07-24 19:20:00,
2013-07-24 12:25:00,87.9,40.5,29.93,WNW,289,3.0,3.0,19,0.00,,,0.00,Wunderground v.1.15,2013-07-24 19:25:00,
2013-07-24 12:30:00,88.6,41.1,29.93,WNW,284,2.0,3.0,19,0.00,,,0.00,Wunderground v.1.15,2013-07-24 19:30:00,
2013-07-24 12:35:00,88.6,41.1,29.93,NNW,346,3.0,9.0,19,0.00,,,0.00,Wunderground v.1.15,2013-07-24 19:35:00,
2013-07-24 12:40:00,87.3,41.3,29.93,NW,305,4.0,9.0,20,0.00,,,0.00,Wunderground v.1.15,2013-07-24 19:40:00,
2013-07-24 12:45:00,87.2,39.9,29.93,WNW,300,5.0,9.0,19,0.00,,,0.00,Wunderground v.1.15,2013-07-24 19:45:00,
2013-07-24 12:50:00,87.9,39.1,29.93,West,268,3.0,3.0,18,0.00,,,0.00,Wunderground v.1.15,2013-07-24 19:50:00,
2013-07-24 12:55:00,88.6,38.2,29.93,SW,232,3.0,5.0,17,0.00,,,0.00,Wunderground v.1.15,2013-07-24 19:55:00,
2013-07-24 13:05:00,88.6,38.2,29.93,West,274,3.0,3.0,17,0.00,,,0.00,Wunderground v.1.15,2013-07-24 20:05:00,
2013-07-24 13:10:00,89.3,37.2,29.93,West,276,3.0,3.0,16,0.00,,,0.00,Wunderground v.1.15,2013-07-24 20:10:00,
2013-07-24 13:15:00,90.5,38.2,29.92,WNW,285,2.0,3.0,16,0.00,,,0.00,Wunderground v.1.15,2013-07-24 20:15:00,
2013-07-24 13:20:00,90.4,36.5,29.92,WNW,290,2.0,2.0,15,0.00,,,0.00,Wunderground v.1.15,2013-07-24 20:20:00,
2013-07-24 13:25:00,90.6,38.3,29.92,WSW,256,2.0,3.0,16,0.00,,,0.00,Wunderground v.1.15,2013-07-24 20:25:00,
2013-07-24 13:30:00,90.5,38.2,29.92,SW,229,3.0,6.0,16,0.00,,,0.00,Wunderground v.1.15,2013-07-24 20:30:00,
2013-07-24 13:34:00,90.2,36.3,29.92,West,281,4.0,9.0,15,0.00,,,0.00,Wunderground v.1.15,2013-07-24 20:34:00,
2013-07-24 13:40:00,90.1,37.9,29.92,SW,223,3.0,9.0,16,0.00,,,0.00,Wunderground v.1.15,2013-07-24 20:40:00,
2013-07-24 13:45:00,90.9,40.1,29.92,SSW,202,3.0,9.0,17,0.00,,,0.00,Wunderground v.1.15,2013-07-24 20:45:00,
2013-07-24 13:50:00,90.1,39.4,29.92,SSW,209,4.0,9.0,17,0.00,,,0.00,Wunderground v.1.15,2013-07-24 20:50:00,
2013-07-24 13:55:00,90.5,39.7,29.92,South,181,4.0,9.0,17,0.00,,,0.00,Wunderground v.1.15,2013-07-24 20:55:00,
2013-07-24 14:00:00,89.9,39.2,29.92,SSW,200,3.0,3.0,17,0.00,,,0.00,Wunderground v.1.15,2013-07-24 21:00:00,
2013-07-24 14:10:00,91.2,40.3,29.92,West,264,3.0,3.0,17,0.00,,,0.00,Wunderground v.1.15,2013-07-24 21:10:00,
2013-07-24 14:15:00,91.5,39.0,29.92,SSW,192,3.0,4.0,16,0.00,,,0.00,Wunderground v.1.15,2013-07-24 21:15:00,
2013-07-24 14:20:00,91.5,39.0,29.92,SW,219,4.0,4.0,16,0.00,,,0.00,Wunderground v.1.15,2013-07-24 21:20:00,
2013-07-24 14:25:00,91.2,40.3,29.92,West,281,4.0,4.0,17,0.00,,,0.00,Wunderground v.1.15,2013-07-24 21:25:00,
2013-07-24 14:29:00,90.5,39.7,29.92,South,182,4.0,4.0,17,0.00,,,0.00,Wunderground v.1.15,2013-07-24 21:29:00,
2013-07-24 14:35:00,90.3,39.6,29.92,West,263,4.0,7.0,17,0.00,,,0.00,Wunderground v.1.15,2013-07-24 21:35:00,
2013-07-24 14:40:00,90.0,39.3,29.92,WSW,244,4.0,7.0,17,0.00,,,0.00,Wunderground v.1.15,2013-07-24 21:40:00,
2013-07-24 14:45:00,89.7,39.1,29.91,SW,229,4.0,7.0,17,0.00,,,0.00,Wunderground v.1.15,2013-07-24 21:45:00,
2013-07-24 14:50:00,90.4,39.6,29.91,WSW,258,4.0,4.0,17,0.00,,,0.00,Wunderground v.1.15,2013-07-24 21:50:00,
2013-07-24 14:55:00,91.3,40.4,29.91,WNW,294,3.0,7.0,17,0.00,,,0.00,Wunderground v.1.15,2013-07-24 21:55:00,
2013-07-24 15:00:00,90.8,40.0,29.91,SW,225,4.0,4.0,17,0.00,,,0.00,Wunderground v.1.15,2013-07-24 22:00:00,
2013-07-24 15:05:00,90.7,38.3,29.91,West,259,4.0,4.0,16,0.00,,,0.00,Wunderground v.1.15,2013-07-24 22:05:00,
2013-07-24 15:10:00,91.5,39.0,29.91,SW,225,3.0,3.0,16,0.00,,,0.00,Wunderground v.1.15,2013-07-24 22:10:00,
2013-07-24 15:15:00,91.5,39.0,29.91,SW,216,3.0,4.0,16,0.00,,,0.00,Wunderground v.1.15,2013-07-24 22:15:00,
2013-07-24 15:20:00,91.2,38.7,29.91,WSW,250,3.0,4.0,16,0.00,,,0.00,Wunderground v.1.15,2013-07-24 22:20:00,
2013-07-24 15:25:00,92.0,39.4,29.91,WSW,237,4.0,5.0,16,0.00,,,0.00,Wunderground v.1.15,2013-07-24 22:25:00,
2013-07-24 15:30:00,91.4,38.9,29.91,NNW,331,4.0,4.0,16,0.00,,,0.00,Wunderground v.1.15,2013-07-24 22:30:00,
2013-07-24 15:35:00,90.6,39.8,29.90,SW,225,3.0,10.0,17,0.00,,,0.00,Wunderground v.1.15,2013-07-24 22:35:00,
2013-07-24 15:40:00,90.7,39.9,29.90,West,271,2.0,10.0,17,0.00,,,0.00,Wunderground v.1.15,2013-07-24 22:40:00,
2013-07-24 15:45:00,90.8,41.4,29.90,West,266,3.0,10.0,18,0.00,,,0.00,Wunderground v.1.15,2013-07-24 22:45:00,
2013-07-24 15:50:00,91.0,38.6,29.90,NW,323,3.0,10.0,16,0.00,,,0.00,Wunderground v.1.15,2013-07-24 22:50:00,
2013-07-24 15:55:00,89.8,40.6,29.90,West,281,3.0,10.0,18,0.00,,,0.00,Wunderground v.1.15,2013-07-24 22:55:00,
2013-07-24 16:00:00,91.1,43.1,29.90,West,264,3.0,3.0,19,0.00,,,0.00,Wunderground v.1.15,2013-07-24 23:00:00,
2013-07-24 16:05:00,91.5,40.5,29.90,SW,227,3.0,6.0,17,0.00,,,0.00,Wunderground v.1.15,2013-07-24 23:05:00,
2013-07-24 16:10:00,91.2,38.7,29.90,SW,223,3.0,6.0,16,0.00,,,0.00,Wunderground v.1.15,2013-07-24 23:10:00,
2013-07-24 16:15:00,91.5,40.5,29.90,WSW,238,3.0,6.0,17,0.00,,,0.00,Wunderground v.1.15,2013-07-24 23:15:00,
2013-07-24 16:20:00,91.7,40.7,29.89,NW,306,3.0,5.0,17,0.00,,,0.00,Wunderground v.1.15,2013-07-24 23:20:00,
2013-07-24 16:25:00,90.9,38.5,29.89,SW,227,3.0,5.0,16,0.00,,,0.00,Wunderground v.1.15,2013-07-24 23:25:00,
2013-07-24 16:30:00,89.9,37.7,29.89,WSW,238,4.0,4.0,16,0.00,,,0.00,Wunderground v.1.15,2013-07-24 23:30:00,
2013-07-24 16:35:00,90.8,38.4,29.89,WNW,284,3.0,8.0,16,0.00,,,0.00,Wunderground v.1.15,2013-07-24 23:35:00,
2013-07-24 16:40:00,90.4,38.1,29.89,NW,307,2.0,8.0,16,0.00,,,0.00,Wunderground v.1.15,2013-07-24 23:40:00,
2013-07-24 16:45:00,90.1,39.4,29.89,SSW,203,2.0,8.0,17,0.00,,,0.00,Wunderground v.1.15,2013-07-24 23:45:00,
2013-07-24 16:50:00,90.4,41.1,29.89,WNW,284,2.0,2.0,18,0.00,,,0.00,Wunderground v.1.15,2013-07-24 23:50:00,
2013-07-24 16:55:00,90.2,36.3,29.89,WSW,238,2.0,4.0,15,0.00,,,0.00,Wunderground v.1.15,2013-07-24 23:55:00,
2013-07-24 17:00:00,90.2,37.9,29.89,SSW,192,2.0,2.0,16,0.00,,,0.00,Wunderground v.1.15,2013-07-25 00:00:00,
2013-07-24 17:05:00,90.1,39.4,29.89,WSW,243,2.0,3.0,17,0.00,,,0.00,Wunderground v.1.15,2013-07-25 00:05:00,
2013-07-24 17:10:00,89.9,40.7,29.89,SW,221,3.0,3.0,18,0.00,,,0.00,Wunderground v.1.15,2013-07-25 00:10:00,
2013-07-24 17:15:00,89.6,40.5,29.89,West,265,3.0,3.0,18,0.00,,,0.00,Wunderground v.1.15,2013-07-25 00:15:00,
2013-07-24 17:20:00,90.0,39.3,29.89,NNW,329,2.0,3.0,17,0.00,,,0.00,Wunderground v.1.15,2013-07-25 00:20:00,
2013-07-24 17:25:00,89.9,37.7,29.89,WNW,288,2.0,4.0,16,0.00,,,0.00,Wunderground v.1.15,2013-07-25 00:25:00,
2013-07-24 17:30:00,89.6,40.5,29.89,NW,304,2.0,2.0,18,0.00,,,0.00,Wunderground v.1.15,2013-07-25 00:30:00,
2013-07-24 17:35:00,89.3,40.2,29.89,SW,232,2.0,7.0,18,0.00,,,0.00,Wunderground v.1.15,2013-07-25 00:35:00,
2013-07-24 17:45:00,88.8,41.2,29.88,West,276,3.0,7.0,19,0.00,,,0.00,Wunderground v.1.15,2013-07-25 00:45:00,
2013-07-24 17:49:00,88.3,42.1,29.88,SW,214,2.0,7.0,20,0.00,,,0.00,Wunderground v.1.15,2013-07-25 00:49:00,
2013-07-24 17:55:00,88.0,41.9,29.88,NW,313,3.0,7.0,20,0.00,,,0.00,Wunderground v.1.15,2013-07-25 00:55:00,
2013-07-24 18:00:00,87.0,41.1,29.88,West,259,2.0,3.0,20,0.00,,,0.00,Wunderground v.1.15,2013-07-25 01:00:00,
2013-07-24 18:05:00,86.4,40.6,29.88,SW,226,2.0,3.0,20,0.00,,,0.00,Wunderground v.1.15,2013-07-25 01:05:00,
2013-07-24 18:10:00,86.9,39.7,29.88,WNW,294,2.0,2.0,19,0.00,,,0.00,Wunderground v.1.15,2013-07-25 01:10:00,
2013-07-24 18:15:00,87.3,40.0,29.88,West,277,2.0,2.0,19,0.00,,,0.00,Wunderground v.1.15,2013-07-25 01:15:00,
2013-07-24 18:20:00,87.8,40.4,29.87,WNW,282,1.0,2.0,19,0.00,,,0.00,Wunderground v.1.15,2013-07-25 01:20:00,
2013-07-24 18:25:00,87.4,38.7,29.87,SW,223,2.0,3.0,18,0.00,,,0.00,Wunderground v.1.15,2013-07-25 01:25:00,
2013-07-24 18:30:00,86.6,36.6,29.88,NW,315,3.0,3.0,17,0.00,,,0.00,Wunderground v.1.15,2013-07-25 01:30:00,
2013-07-24 18:35:00,86.3,37.8,29.88,WNW,300,2.0,7.0,18,0.00,,,0.00,Wunderground v.1.15,2013-07-25 01:35:00,
2013-07-24 18:40:00,85.7,37.3,29.87,West,270,2.0,7.0,18,0.00,,,0.00,Wunderground v.1.15,2013-07-25 01:40:00,
2013-07-24 18:45:00,85.2,36.9,29.87,WNW,292,2.0,7.0,18,0.00,,,0.00,Wunderground v.1.15,2013-07-25 01:45:00,
2013-07-24 18:50:00,85.0,36.7,29.87,SW,236,2.0,7.0,18,0.00,,,0.00,Wunderground v.1.15,2013-07-25 01:50:00,
2013-07-24 18:55:00,84.5,36.3,29.87,SW,229,2.0,7.0,18,0.00,,,0.00,Wunderground v.1.15,2013-07-25 01:55:00,
2013-07-24 19:00:00,83.7,37.0,29.88,SW,216,2.0,2.0,19,0.00,,,0.00,Wunderground v.1.15,2013-07-25 02:00:00,
2013-07-24 19:09:00,83.3,36.7,29.87,SW,227,2.0,2.0,19,0.00,,,0.00,Wunderground v.1.15,2013-07-25 02:09:00,
2013-07-24 19:15:00,83.0,37.8,29.87,SSW,205,2.0,2.0,20,0.00,,,0.00,Wunderground v.1.15,2013-07-25 02:15:00,
2013-07-24 19:20:00,82.7,37.5,29.87,SSW,196,2.0,2.0,20,0.00,,,0.00,Wunderground v.1.15,2013-07-25 02:20:00,
2013-07-24 19:25:00,82.1,35.7,29.87,WSW,238,2.0,3.0,19,0.00,,,0.00,Wunderground v.1.15,2013-07-25 02:25:00,
2013-07-24 19:30:00,81.5,35.2,29.87,SW,236,2.0,2.0,19,0.00,,,0.00,Wunderground v.1.15,2013-07-25 02:30:00,
2013-07-24 19:35:00,80.7,34.6,29.87,SW,232,3.0,4.0,19,0.00,,,0.00,Wunderground v.1.15,2013-07-25 02:35:00,
2013-07-24 19:40:00,79.6,36.2,29.88,SW,228,3.0,4.0,21,0.00,,,0.00,Wunderground v.1.15,2013-07-25 02:40:00,
2013-07-24 19:44:00,78.7,35.5,29.88,SW,234,2.0,4.0,21,0.00,,,0.00,Wunderground v.1.15,2013-07-25 02:44:00,
2013-07-24 19:50:00,78.1,36.1,29.87,SW,234,2.0,4.0,22,0.00,,,0.00,Wunderground v.1.15,2013-07-25 02:50:00,
2013-07-24 19:55:00,77.6,35.7,29.88,SW,234,2.0,4.0,22,0.00,,,0.00,Wunderground v.1.15,2013-07-25 02:55:00,
2013-07-24 20:00:00,77.1,34.1,29.88,SW,234,1.0,2.0,21,0.00,,,0.00,Wunderground v.1.15,2013-07-25 03:00:00,
2013-07-24 20:05:00,76.6,33.7,29.88,SW,234,1.0,2.0,21,0.00,,,0.00,Wunderground v.1.15,2013-07-25 03:05:00,
2013-07-24 20:10:00,76.1,34.5,29.88,SW,234,0.0,0.0,22,0.00,,,0.00,Wunderground v.1.15,2013-07-25 03:10:00,
2013-07-24 20:15:00,75.6,34.1,29.88,SW,234,0.0,0.0,22,0.00,,,0.00,Wunderground v.1.15,2013-07-25 03:15:00,
2013-07-24 20:20:00,75.3,34.9,29.88,SW,234,0.0,0.0,23,0.00,,,0.00,Wunderground v.1.15,2013-07-25 03:20:00,
2013-07-24 20:25:00,75.2,35.9,29.88,SW,234,0.0,0.0,24,0.00,,,0.00,Wunderground v.1.15,2013-07-25 03:25:00,
2013-07-24 20:29:00,75.3,37.0,29.88,SW,234,0.0,0.0,25,0.00,,,0.00,Wunderground v.1.15,2013-07-25 03:29:00,
2013-07-24 20:35:00,75.5,37.2,29.88,SW,234,0.0,4.0,25,0.00,,,0.00,Wunderground v.1.15,2013-07-25 03:35:00,
2013-07-24 20:40:00,75.6,37.3,29.88,SW,234,0.0,4.0,25,0.00,,,0.00,Wunderground v.1.15,2013-07-25 03:40:00,
2013-07-24 20:45:00,75.4,38.1,29.88,SW,234,0.0,4.0,26,0.00,,,0.00,Wunderground v.1.15,2013-07-25 03:45:00,
2013-07-24 20:50:00,75.1,37.9,29.88,SW,234,0.0,4.0,26,0.00,,,0.00,Wunderground v.1.15,2013-07-25 03:50:00,
2013-07-24 20:55:00,74.9,37.7,29.89,SW,234,0.0,4.0,26,0.00,,,0.00,Wunderground v.1.15,2013-07-25 03:55:00,
2013-07-24 21:00:00,74.8,36.6,29.88,SW,234,0.0,0.0,25,0.00,,,0.00,Wunderground v.1.15,2013-07-25 04:00:00,
2013-07-24 21:05:00,74.7,35.5,29.88,SW,234,0.0,0.0,24,0.00,,,0.00,Wunderground v.1.15,2013-07-25 04:05:00,
2013-07-24 21:10:00,74.7,35.5,29.89,SW,234,0.0,0.0,24,0.00,,,0.00,Wunderground v.1.15,2013-07-25 04:10:00,
2013-07-24 21:15:00,74.8,35.6,29.89,SW,234,0.0,0.0,24,0.00,,,0.00,Wunderground v.1.15,2013-07-25 04:15:00,
2013-07-24 21:20:00,74.3,36.2,29.89,SW,234,0.0,0.0,25,0.00,,,0.00,Wunderground v.1.15,2013-07-25 04:20:00,
2013-07-24 21:25:00,73.8,28.9,29.89,NW,315,0.0,1.0,19,0.00,,,0.00,Wunderground v.1.15,2013-07-25 04:25:00,
2013-07-24 21:30:00,73.6,26.1,29.89,NW,315,1.0,1.0,17,0.00,,,0.00,Wunderground v.1.15,2013-07-25 04:30:00,
2013-07-24 21:35:00,73.7,27.5,29.89,NW,315,1.0,1.0,18,0.00,,,0.00,Wunderground v.1.15,2013-07-25 04:35:00,
2013-07-24 21:40:00,73.9,26.3,29.89,NW,315,1.0,2.0,17,0.00,,,0.00,Wunderground v.1.15,2013-07-25 04:40:00,
2013-07-24 21:45:00,74.0,27.8,29.89,NW,319,1.0,2.0,18,0.00,,,0.00,Wunderground v.1.15,2013-07-25 04:45:00,
2013-07-24 21:50:00,73.9,27.7,29.89,NW,319,1.0,1.0,18,0.00,,,0.00,Wunderground v.1.15,2013-07-25 04:50:00,
2013-07-24 21:55:00,73.8,27.6,29.90,NW,319,0.0,1.0,18,0.00,,,0.00,Wunderground v.1.15,2013-07-25 04:55:00,
2013-07-24 22:00:00,73.8,27.6,29.90,SW,233,1.0,1.0,18,0.00,,,0.00,Wunderground v.1.15,2013-07-25 05:00:00,
2013-07-24 22:05:00,73.8,27.6,29.90,SW,233,1.0,1.0,18,0.00,,,0.00,Wunderground v.1.15,2013-07-25 05:05:00,
2013-07-24 22:10:00,73.6,27.4,29.90,SW,229,2.0,2.0,18,0.00,,,0.00,Wunderground v.1.15,2013-07-25 05:10:00,
2013-07-24 22:15:00,73.1,28.4,29.90,SW,230,2.0,2.0,19,0.00,,,0.00,Wunderground v.1.15,2013-07-25 05:15:00,
2013-07-24 22:20:00,72.5,27.9,29.90,SW,230,1.0,2.0,19,0.00,,,0.00,Wunderground v.1.15,2013-07-25 05:20:00,
2013-07-24 22:25:00,72.4,29.0,29.90,SW,223,1.0,2.0,20,0.00,,,0.00,Wunderground v.1.15,2013-07-25 05:25:00,
2013-07-24 22:30:00,72.4,29.0,29.90,SW,221,1.0,2.0,20,0.00,,,0.00,Wunderground v.1.15,2013-07-25 05:30:00,
2013-07-24 22:35:00,72.5,30.3,29.90,South,170,1.0,3.0,21,0.00,,,0.00,Wunderground v.1.15,2013-07-25 05:35:00,
2013-07-24 22:40:00,72.6,30.4,29.90,South,171,1.0,3.0,21,0.00,,,0.00,Wunderground v.1.15,2013-07-25 05:40:00,
2013-07-24 22:50:00,72.7,28.0,29.90,SSE,164,1.0,3.0,19,0.00,,,0.00,Wunderground v.1.15,2013-07-25 05:50:00,
2013-07-24 22:55:00,73.1,27.0,29.90,SSE,155,2.0,3.0,18,0.00,,,0.00,Wunderground v.1.15,2013-07-25 05:55:00,
2013-07-24 23:00:00,73.3,25.8,29.89,SE,138,1.0,2.0,17,0.00,,,0.00,Wunderground v.1.15,2013-07-25 06:00:00,
2013-07-24 23:10:00,73.4,27.3,29.90,South,182,1.0,1.0,18,0.00,,,0.00,Wunderground v.1.15,2013-07-25 06:10:00,
2013-07-24 23:15:00,73.5,26.0,29.90,South,182,1.0,1.0,17,0.00,,,0.00,Wunderground v.1.15,2013-07-25 06:15:00,
2013-07-24 23:20:00,73.5,27.4,29.89,South,177,1.0,1.0,18,0.00,,,0.00,Wunderground v.1.15,2013-07-25 06:20:00,
2013-07-24 23:25:00,73.5,27.4,29.89,South,188,1.0,2.0,18,0.00,,,0.00,Wunderground v.1.15,2013-07-25 06:25:00,
2013-07-24 23:29:00,73.4,27.3,29.89,South,188,1.0,1.0,18,0.00,,,0.00,Wunderground v.1.15,2013-07-25 06:29:00,
2013-07-24 23:35:00,73.2,28.4,29.89,SSW,201,1.0,2.0,19,0.00,,,0.00,Wunderground v.1.15,2013-07-25 06:35:00,
2013-07-24 23:40:00,73.1,27.0,29.90,SSW,200,1.0,4.0,18,0.00,,,0.00,Wunderground v.1.15,2013-07-25 06:40:00,
2013-07-24 23:45:00,73.0,28.3,29.90,SSE,153,2.0,4.0,19,0.00,,,0.00,Wunderground v.1.15,2013-07-25 06:45:00,
2013-07-24 23:50:00,72.6,27.9,29.90,SSW,192,1.0,4.0,19,0.00,,,0.00,Wunderground v.1.15,2013-07-25 06:50:00,
2013-07-24 23:55:00,72.8,28.1,29.90,ESE,114,1.0,4.0,19,0.00,,,0.00,Wunderground v.1.15,2013-07-25 06:55:00,